Flag for Germany Weather past 2 weeks in Neunkirchen (Saar), Saarland, Germany

Now
36 °F

Passing clouds.


Feels Like: 31 °F
Forecast: 35 / 49 °F
Wind: 6 mph from South

Location: Saarbruecken / Ensheim

Current Time: Mar 1, 2015 at 12:48:11 AM

Latest Report: Mar 1, 2015 at 12:20 AM


Visibility: N/A

Pressure: 29.89 "Hg

Humidity: 75%

Dew point: 28 °F

Location of Neunkirchen (Saar)Location

Historic Weather in Neunkirchen (Saar) — Graph

°F

Neunkirchen (Saar) temperature yesterday

Maximum temperature yesterday: 45 °F (at 2:20 PM)
Minimum temperature yesterday: 27 °F (at 5:50 AM)
Average temperature yesterday: 36 °F

Past Weeks' High & Low Weather Summary

 TemperatureHumidityPressure
High52 °F (Feb 20, 3:50 PM)100% (Feb 16, 12:20 AM)30.69 "Hg (Feb 16, 12:20 AM)
Low27 °F (Feb 28, 5:50 AM)39% (Feb 28, 2:50 PM)29.45 "Hg (Feb 23, 12:50 PM)
Average36 °F85%29.99 "Hg
* Reported Feb 13 11:20 PM — Feb 28 11:50 PM, Neunkirchen (Saar), Weather by CustomWeather, © 2015

Note: Actual official high and low records may vary slightly from our data, if they occured in-between our weather recording intervals... More about our weather records

Advertising

Neunkirchen (Saar) weather history for previous 24 hours

 ConditionsComfort  
Time TempWeatherWind HumidityBarometerVisibility
11:50 PM
Sat, Feb 28
36 °FClear.7 mph75%29.92 "Hg10 mi
11:20 PM36 °FPassing clouds.7 mph75%29.92 "HgN/A
10:50 PM36 °FClear.7 mph70%29.95 "Hg10 mi
10:20 PM36 °FClear.8 mph70%29.98 "Hg10 mi
9:50 PM37 °FPassing clouds.8 mph65%29.98 "HgN/A
9:20 PM37 °FPassing clouds.8 mph65%29.98 "HgN/A
8:50 PM37 °FClear.7 mph65%29.98 "Hg10 mi
8:20 PM37 °FClear.5 mph65%30.01 "Hg10 mi
7:50 PM37 °FClear.3 mph65%30.01 "Hg10 mi
7:20 PM37 °FClear.5 mph65%30.01 "Hg10 mi
6:50 PM39 °FClear.5 mph61%30.01 "Hg10 mi
6:20 PM39 °FClear.7 mph61%30.01 "Hg10 mi
5:50 PM41 °FPassing clouds.9 mph53%30.01 "HgN/A
5:20 PM43 °FPassing clouds.10 mph49%30.01 "HgN/A
4:50 PM43 °FPassing clouds.9 mph49%30.04 "HgN/A
4:20 PM43 °FPassing clouds.12 mph49%30.07 "HgN/A
3:50 PM45 °FPassing clouds.10 mph46%30.07 "HgN/A
3:20 PM45 °FPassing clouds.13 mph39%30.07 "HgN/A
2:50 PM45 °FScattered clouds.10 mph39%30.07 "HgN/A
2:20 PM45 °FPartly sunny.8 mph53%30.09 "HgN/A
1:50 PM43 °FPartly sunny.12 mph53%30.09 "HgN/A
1:20 PM43 °FPartly sunny.9 mph53%30.09 "HgN/A
12:50 PM41 °FPartly sunny.9 mph57%30.12 "HgN/A
12:20 PM41 °FScattered clouds.8 mph61%30.12 "HgN/A
11:50 AM39 °FScattered clouds.9 mph70%30.15 "HgN/A
11:20 AM41 °FPassing clouds.6 mph70%30.15 "HgN/A
10:50 AM37 °FPassing clouds.7 mph81%30.15 "HgN/A
10:20 AM37 °FPassing clouds.5 mph81%30.15 "HgN/A
9:50 AM36 °FClear.7 mph87%30.15 "Hg6 mi
9:20 AM34 °FClear.3 mph93%30.15 "Hg4 mi
8:50 AM30 °FIce fog.No wind100%30.15 "Hg3 mi
8:20 AM28 °FIce fog.1 mph100%30.15 "Hg2 mi
7:50 AM27 °FIce fog.2 mph100%30.15 "Hg2 mi
7:20 AM27 °FIce fog.2 mph100%30.15 "Hg2 mi
6:50 AM27 °FIce fog.No wind100%30.15 "Hg2 mi
6:20 AM27 °FIce fog.1 mph100%30.15 "Hg2 mi
5:50 AM27 °FIce fog.No wind100%30.15 "Hg2 mi
5:20 AM28 °FClear.1 mph93%30.15 "Hg10 mi
4:50 AM28 °FClear.No wind100%30.15 "Hg10 mi
4:20 AM30 °FClear.2 mph93%30.15 "Hg10 mi
3:50 AM30 °FClear.2 mph93%30.15 "Hg10 mi
3:20 AM30 °FClear.3 mph93%30.15 "Hg10 mi
2:50 AM30 °FClear.5 mph93%30.15 "Hg10 mi
2:20 AM30 °FClear.2 mph93%30.15 "Hg10 mi
1:50 AM32 °FClear.1 mph87%30.15 "Hg10 mi
1:20 AM34 °FClear.2 mph87%30.15 "Hg10 mi
12:50 AM34 °FClear.2 mph87%30.15 "Hg10 mi
12:20 AM34 °FClear.6 mph87%30.15 "Hg10 mi
Weather by CustomWeather, © 2015

See weather overviewHow to use our weather pages